Back to catalog

SJ-11-02

AliveScienceSSO
NORAD 37765·PAYLOAD·🇨🇳 China

Launched Jul 29, 2011 from Jiuquan Satellite Launch Center

Loading…

Next Passes (next 24 hours)

TLE

FreshSource: Space-Track

Epoch: Sep 13, 2026, 17:25 UTC

1 37765U 11039A   26256.72623041  .00000317  00000-0  68935-4 0  9994
2 37765  98.2476 146.9797 0010396 352.7074  75.6017 14.64552597806914

Track SJ-11-02 in real time with AllMySat

Download on the App Store